SM7GXQ Weather Reports


time (UTC)temp
F
wind
direction
speed
knots
gust
knots
rain 1hr
in
rain 24hr
in
rain mn
in
humidity
%
barometer
mb
20260510151504 60 157 2.6 8.7 0.00 0.00 0.00 46 1009.2
20260510144504 59 214 2.6 8.7 0.00 0.00 0.00 51 1009.7
20260510143005 58 215 2.6 7.8 0.00 0.00 0.00 55 1011.1
20260510140004 58 195 4.3 7.8 0.00 0.00 0.00 59 1011.1
20260510124504 56 219 3.5 7.8 0.00 0.00 0.00 60 1011.8
20260510121504 53 209 4.3 7.0 0.00 0.00 0.00 65 1012.2
20260510120005 53 189 2.6 10.4 0.00 0.00 0.00 66 1012.3
20260510113004 53 218 4.3 10.4 0.00 0.00 0.00 65 1013.3
20260510111504 52 198 3.5 10.4 0.00 0.00 0.00 65 1013.3
20260510103004 54 208 4.3 7.0 0.00 0.00 0.00 75 1013.5
20260510101503 55 188 4.3 8.7 0.00 0.00 0.00 74 1013.7
20260510100004 55 202 2.6 7.0 0.00 0.00 0.00 68 1013.8
20260510091503 55 187 1.7 5.2 0.00 0.00 0.00 65 1013.9
20260510084504 52 241 3.5 6.1 0.00 0.00 0.00 78 1014.4
20260510081504 51 271 2.6 5.2 0.00 0.00 0.00 78 1014.6
20260510074503 50 257 2.6 6.1 0.00 0.00 0.00 80 1014.8
20260510073004 50 267 2.6 4.3 0.00 0.00 0.00 81 1015.5
20260510071503 50 265 2.6 4.3 0.00 0.00 0.00 82 1015.5
20260510060003 48 273 0.9 2.6 0.00 0.00 0.00 83 1015.8
20260510053004 49 156 0.0 1.7 0.00 0.00 0.00 81 1016.2
20260510051503 48 138 0.9 1.7 0.00 0.00 0.00 82 1016.2
20260510050003 46 140 0.9 2.6 0.00 0.00 0.00 85 1016.2
20260510043003 43 140 0.0 0.9 0.00 0.00 0.00 90 1016.5
20260510041503 40 140 0.0 1.7 0.00 0.00 0.00 92 1016.5
20260510034503 36 140 0.0 1.7 0.00 0.00 0.00 92 1016.7
20260510031504 34 146 0.0 1.7 0.00 0.00 0.00 92 1017.6
20260510014504 35 146 0.0 0.0 0.00 0.00 0.00 90 1017.8
20260510011504 35 146 0.0 0.0 0.00 0.00 0.00 90 1018.4
20260510003003 36 146 0.0 0.0 0.00 0.00 0.00 90 1018.4
20260510000003 37 146 0.0 0.0 0.00 0.00 0.00 90 1019.0
20260509233004 37 146 0.0 0.0 0.00 0.00 0.00 90 1019.0
20260509231503 38 146 0.0 0.0 0.00 0.00 0.00 90 1019.0
20260509213003 40 146 0.0 0.0 0.00 0.00 0.00 89 1019.7
20260509210004 42 146 0.0 0.0 0.00 0.00 0.00 88 1019.7
20260509204504 42 146 0.0 0.9 0.00 0.00 0.00 87 1019.7
20260509203005 43 146 0.0 1.7 0.00 0.00 0.00 86 1019.7
20260509201504 43 147 0.0 0.9 0.00 0.00 0.00 85 1020.0
20260509194503 45 147 0.0 1.7 0.00 0.00 0.00 81 1020.1
20260509193005 46 147 0.9 2.6 0.00 0.00 0.00 80 1020.1
20260509184504 49 163 0.9 2.6 0.00 0.00 0.00 73 1020.1
20260509174505 53 131 0.9 6.1 0.00 0.00 0.00 62 1019.8
20260509171504 55 96 1.7 7.0 0.00 0.00 0.00 55 1019.8
20260509154505 58 64 4.3 14.8 0.00 0.00 0.00 42 1020.6